Regional Weather Roundup
Issued by NWS Mt. Holly, NJ

Home | Current Version | Previous Version | Text Only | Print | Product List | Glossary On
Versions: 1 2 3 4 5 6 7 8 9 10 11 12 13 14 15 16 17 18 19 20 21 22 23 24 25 26 27 28 29 30 31 32 33 34 35 36 37 38 39 40 41 42 43 44 45 46 47 48 49 50
000
ASUS41 KPHI 300411
RWRPHI

REGIONAL WEATHER ROUNDUP
NATIONAL WEATHER SERVICE MOUNT HOLLY NJ
1200 AM EDT MON MAR 30 2015

NOTE:  "FAIR" INDICATES FEW OR NO CLOUDS BELOW 12,000 FEET WITH NO
SIGNIFICANT WEATHER AND/OR OBSTRUCTIONS TO VISIBILITY.

 * = STATION DOES NOT REPORT PRECIPITATION (E.G. RAIN, SNOW, ETC.)
        OR FOG.

NJZ015>026-300500-
SOUTHERN NEW JERSEY

CITY           SKY/WX    TMP DP  RH WIND       PRES   REMARKS
POMONA         CLEAR     33  21  61 MISG      30.17F
RIO GRANDE*    CLEAR     34  18  51 S6        30.19F WCI  29
MILLVILLE      PTCLDY    34  20  56 CALM      30.16F
WRIGHTSTOWN    CLEAR     31  15  50 SW7       30.12F WCI  25
MOUNT HOLLY    FAIR      32  15  49 S5        30.15F WCI  27
TRENTON        PTCLDY    34  14  43 SW8       30.13F WCI  27

$$
NJZ001>014-300500-
NORTHERN NEW JERSEY

CITY           SKY/WX    TMP DP  RH WIND       PRES   REMARKS
SUSSEX         MOCLDY    33  12  41 CALM      30.08F
ANDOVER*         N/A     33  16  49 S3        30.08F
MORRISTOWN     PTCLDY    36  12  38 SW5       30.12S WCI  32
NEWARK         MOCLDY    36  15  42 S9        30.12F WCI  29
TETERBORO      CLEAR     37  13  37 S9        30.10F WCI  30
CALDWELL       PTCLDY    36   9  32 CALM      30.11F
SOMERVILLE     PTCLDY    31  14  49 S3        30.11F
ALLAIRE*       CLEAR     34  12  40 SW8       30.13F WCI  27
TOMS RIVER*    CLEAR     28  14  54 SW7       30.15F WCI  21

$$
PAZ043-044-047-054-055-060>062-066>071-300500-
EASTERN PENNSYLVANIA

CITY           SKY/WX    TMP DP  RH WIND       PRES   REMARKS
PHILADELPHIA   CLOUDY    38  14  37 S9        30.15F WCI  31
NORTH PHILA    PTCLDY    38  11  32 VRB5      30.15F WCI  34
BLUE BELL      MOCLDY    37  16  41 S3        30.11F
DOYLESTOWN     MOCLDY    34  12  40 S5        30.10F WCI  30
QUAKERTOWN*    CLOUDY    34  14  44 SW6       30.11S WCI  29
POTTSTOWN      CLOUDY    35  12  38 SW5       30.14S WCI  31
LANCASTER      CLOUDY    34  18  52 S5        30.10S WCI  30
COATESVILLE    CLOUDY    34  18  51 S6        30.11S WCI  29
READING        CLOUDY    36  14  40 S7        30.10S WCI  30
ALLENTOWN      CLOUDY    37  12  35 SW9       30.10F WCI  30
MOUNT POCONO   CLOUDY    31   8  38 SW9       30.01F WCI  23
HAZLETON       CLOUDY    34   9  35 S7        30.03F WCI  28
WILKES BARRE   CLOUDY    37   8  30 S7        30.02F WCI  32

$$
DEZALL-MDZ008-012-015-019-020-300500-
DELAWARE AND EASTERN MARYLAND

CITY           SKY/WX    TMP DP  RH WIND       PRES   REMARKS
WILMINGTON     MOCLDY    36  13  38 S7        30.15F WCI  30
DOVER          PTCLDY    32  18  56 S8        30.16F WCI  25
GEORGETOWN     CLEAR     31  16  54 S8        30.19F WCI  23
EASTON         MOCLDY    38  23  55 S8        30.21S WCI  32
PATUXENT       MOCLDY    37  23  56 S7        30.18F WCI  32
OCEAN CITY     PTCLDY    35  25  66 SW6       30.21F WCI  30
WALLOPS ISLAND PTCLDY    35  26  69 S10       30.23F WCI  27
CAMBRIDGE      PTCLDY    36  27  69 S7        30.17F WCI  30
SALISBURY      PTCLDY    30  16  56 S5        30.20F WCI  25

$$
PAZ001-021-NYZ056-072-MDZ011-DCZ001-300500-
OTHER NEARBY LOCATIONS

CITY           SKY/WX    TMP DP  RH WIND       PRES   REMARKS
HARRISBURG     CLOUDY    39  10  30 S8G17     30.08F WCI  33
STATE COLLEGE  CLOUDY    39   6  26 S9        29.95F WCI  33
WILLIAMSPORT   CLOUDY    40   8  26 S16G24    30.00F WCI  31
BINGHAMTON     CLOUDY    34   9  35 S10       29.92F WCI  26
NEW YORK CITY  CLEAR     40  13  33 MISG      30.14F
BALTIMORE      CLOUDY    37  13  37 VRB3      30.14S
WASHINGTON DC  CLOUDY    43  19  38 S12       30.16R

$$



USA.gov is the U.S. government's official web portal to all federal, state and local government web resources and services.